Weather History for Cairns, QU

Change the Weather History Date:

Wednesday, March 30, 2011

  Actual Average Record
Temperature  
Mean Temperature 82 °F -  
Max Temperature 89 °F 84 °F 89 °F (2002)
Min Temperature 74 °F 71 °F 66 °F (2007)
Cooling Degree Days 16    
Growing Degree Days 32 (Base 50)    
Moisture  
Dew Point 73 °F    
Average Humidity 76    
Maximum Humidity 95    
Minimum Humidity 52    
Precipitation  
Precipitation 0.01 in 0.29 in - ()
Sea Level Pressure  
Sea Level Pressure 29.83 in    
Wind  
Wind Speed 8 mph ()    
Max Wind Speed 14 mph    
Max Gust Speed -    
Visibility 7.1 miles    
Events Rain    
Averages and records for this station are not official NWS values.
T = Trace of Precipitation, MM = Missing Value Source: Averaged Metar Reports

Daily Weather History Graph

Daily Weather History Graph

Search for Another Location

Airport:

Trip Planner

Search our weather history database for the weather conditions in past years. The results will help you decide how hot, cold, wet, or windy it might be!

Date:

Astronomy

Mar. 30, 2011 Rise Set
Actual Time 6:22 AM AEST 6:20 PM AEST
Civil Twilight 6:00 AM AEST 6:42 PM AEST
Nautical Twilight 5:35 AM AEST 7:07 PM AEST
Astronomical Twilight 5:10 AM AEST 7:32 PM AEST
Moon 2:39 AM AEST (3/30) 3:30 PM AEST (3/30)
Length of Visible Light 12h 41m
Length of Day
11h 58m
Waning Crescent, 17% of the Moon is Illuminated
Mar 30
Waning Crescent
Apr 4
New
Apr 11
First Quarter
Apr 18
Full
Apr 25
Last Quarter

Hourly Weather History & Observations

Time (AEST) Temp. Heat Index Dew Point Humidity Pressure Visibility Wind Dir Wind Speed Gust Speed Precip Events Conditions
12:00 AM 77 °F - 73 °F 85% 29.86 in 16 mi South 11.5 mph - -   Partly Cloudy
12:00 AM 77.0 °F - 73.4 °F 89% 29.86 in 6.2 mi South 11.5 mph - N/A   Mostly Cloudy
12:30 AM 77.0 °F - 73.4 °F 89% 29.86 in 6.2 mi SSE 13.8 mph - N/A   Mostly Cloudy
1:00 AM 76 °F - 72 °F 84% 29.85 in - SE 11.5 mph - -  
1:00 AM 77.0 °F - 71.6 °F 83% 29.83 in 6.2 mi SE 11.5 mph - N/A Rain Light Rain Showers
1:30 AM 75.2 °F - 73.4 °F 94% 29.83 in 6.2 mi SSE 10.4 mph - N/A Rain Light Rain Showers
2:00 AM 75.2 °F - 73.4 °F 94% 29.83 in 6.2 mi SSE 10.4 mph - N/A Rain Light Rain Showers
2:30 AM 75.2 °F - 73.4 °F 94% 29.83 in 6.2 mi South 4.6 mph - N/A   Mostly Cloudy
3:00 AM 75 °F - 74 °F 95% 29.82 in 16 mi Calm Calm - - Rain Light Rain Showers
3:00 AM 75.2 °F - 73.4 °F 94% 29.80 in 6.2 mi Calm Calm - N/A   Mostly Cloudy
3:30 AM 75.2 °F - 73.4 °F 94% 29.80 in 6.2 mi Calm Calm - N/A   Mostly Cloudy
4:00 AM 75 °F - 72 °F 89% 29.82 in - Calm Calm - -  
4:00 AM 75.2 °F - 73.4 °F 94% 29.80 in 6.2 mi Calm Calm - N/A   Mostly Cloudy
4:30 AM 75.2 °F - 71.6 °F 89% 29.80 in 6.2 mi SSE 11.5 mph - N/A   Mostly Cloudy
5:00 AM 75.2 °F - 71.6 °F 89% 29.83 in 6.2 mi SSE 9.2 mph - N/A   Mostly Cloudy
5:30 AM 75.2 °F - 71.6 °F 89% 29.83 in 6.2 mi South 10.4 mph - N/A   Mostly Cloudy
6:00 AM 76 °F - 72 °F 84% 29.85 in 16 mi South 10.4 mph - -   Partly Cloudy
6:00 AM 75.2 °F - 71.6 °F 89% 29.83 in 6.2 mi South 10.4 mph - N/A   Mostly Cloudy
6:30 AM 75.2 °F - 71.6 °F 89% 29.83 in 6.2 mi South 10.4 mph - N/A   Mostly Cloudy
7:00 AM 76 °F - 72 °F 84% 29.86 in - South 10.4 mph - -  
7:00 AM 77.0 °F - 71.6 °F 83% 29.83 in 6.2 mi South 10.4 mph - N/A   Mostly Cloudy
7:30 AM 77.0 °F - 71.6 °F 83% 29.86 in 6.2 mi South 12.7 mph - N/A   Mostly Cloudy
8:00 AM 78.8 °F - 73.4 °F 83% 29.86 in 6.2 mi SSE 10.4 mph - N/A   Mostly Cloudy
8:30 AM 80.6 °F 86.2 °F 75.2 °F 84% 29.86 in 6.2 mi SSE 10.4 mph - N/A   Mostly Cloudy
9:00 AM 83 °F - 73 °F 66% 29.88 in 12 mi South 10.4 mph - -   Haze
9:00 AM 82.4 °F 88.2 °F 73.4 °F 74% 29.86 in 6.2 mi South 10.4 mph - N/A   Mostly Cloudy
9:30 AM 84.2 °F 90.9 °F 73.4 °F 70% 29.86 in 6.2 mi South 11.5 mph - N/A   Mostly Cloudy
10:00 AM 84 °F - 74 °F 64% 29.89 in - SSE 10.4 mph - -  
10:00 AM 84.2 °F 90.9 °F 73.4 °F 70% 29.86 in 6.2 mi SSE 10.4 mph - N/A   Mostly Cloudy
10:30 AM 86.0 °F 93.4 °F 73.4 °F 66% 29.86 in 6.2 mi South 10.4 mph - N/A   Mostly Cloudy
11:00 AM 86.0 °F 93.4 °F 73.4 °F 66% 29.86 in 6.2 mi South 9.2 mph - N/A   Mostly Cloudy
11:30 AM 87.8 °F 95.6 °F 73.4 °F 62% 29.86 in 6.2 mi ESE 8.1 mph - N/A   Mostly Cloudy
12:00 PM 87 °F - 72 °F 53% 29.85 in 16 mi ESE 8.1 mph - -   Haze
12:00 PM 87.8 °F 93.8 °F 71.6 °F 58% 29.83 in 6.2 mi ESE 8.1 mph - N/A   Mostly Cloudy
12:30 PM 87.8 °F 93.8 °F 71.6 °F 58% 29.83 in 6.2 mi SE 8.1 mph - N/A   Mostly Cloudy
1:00 PM 86 °F - 72 °F 54% 29.83 in - SE 8.1 mph - -  
1:00 PM 86.0 °F 91.8 °F 71.6 °F 62% 29.80 in 6.2 mi SE 8.1 mph - N/A   Mostly Cloudy
1:30 PM 87.8 °F 95.6 °F 73.4 °F 62% 29.80 in 6.2 mi ENE 8.1 mph - N/A   Scattered Clouds
2:00 PM 87.8 °F 95.6 °F 73.4 °F 62% 29.80 in 6.2 mi ESE 8.1 mph - N/A   Scattered Clouds
2:30 PM 87.8 °F 93.8 °F 71.6 °F 58% 29.77 in 6.2 mi SE 5.8 mph - N/A   Scattered Clouds
3:00 PM 89 °F - 74 °F 52% 29.78 in 9 mi NE 9.2 mph - -   Haze
3:00 PM 89.6 °F 98.2 °F 73.4 °F 59% 29.77 in 6.2 mi NE 9.2 mph - N/A   Scattered Clouds
3:30 PM 87.8 °F 93.8 °F 71.6 °F 58% 29.77 in 6.2 mi East 8.1 mph - N/A   Partly Cloudy
4:00 PM 87 °F - 73 °F 54% 29.78 in - ESE 6.9 mph - -  
4:00 PM 87.8 °F 95.6 °F 73.4 °F 62% 29.77 in 6.2 mi ESE 6.9 mph - N/A   Partly Cloudy
4:30 PM 87.8 °F 95.6 °F 73.4 °F 62% 29.77 in 6.2 mi East 9.2 mph - N/A   Partly Cloudy
5:00 PM 86.0 °F 93.4 °F 73.4 °F 66% 29.77 in 6.2 mi ESE 6.9 mph - N/A   Partly Cloudy
5:30 PM 84.2 °F 90.9 °F 73.4 °F 70% 29.77 in 6.2 mi SSE 9.2 mph - N/A   Partly Cloudy
6:00 PM 83 °F - 74 °F 66% 29.80 in - South 5.8 mph - -  
6:00 PM 82.4 °F 88.2 °F 73.4 °F 74% 29.80 in 6.2 mi South 5.8 mph - N/A   Partly Cloudy
6:30 PM 80.6 °F 85.4 °F 73.4 °F 79% 29.80 in 6.2 mi South 8.1 mph - N/A   Partly Cloudy
7:00 PM 80 °F - 74 °F 78% 29.83 in - South 8.1 mph - -  
7:00 PM 80.6 °F 86.2 °F 75.2 °F 84% 29.83 in 6.2 mi South 8.1 mph - N/A   Partly Cloudy
7:30 PM 80.6 °F 85.4 °F 73.4 °F 79% 29.83 in 6.2 mi South 8.1 mph - N/A   Partly Cloudy
8:00 PM 78.8 °F - 75.2 °F 89% 29.86 in 6.2 mi South 6.9 mph - N/A   Partly Cloudy
8:30 PM 80.6 °F 85.4 °F 73.4 °F 79% 29.86 in 6.2 mi South 8.1 mph - N/A   Partly Cloudy
9:00 PM 79 °F - 74 °F 79% 29.90 in 9 mi South 5.8 mph - -   Haze
9:00 PM 78.8 °F - 73.4 °F 83% 29.89 in 6.2 mi South 5.8 mph - N/A   Partly Cloudy
9:30 PM 80.6 °F 85.4 °F 73.4 °F 79% 29.89 in 6.2 mi South 6.9 mph - N/A   Partly Cloudy
10:00 PM 80 °F - 74 °F 76% 29.91 in - South 6.9 mph - -  
10:00 PM 78.8 °F - 73.4 °F 83% 29.89 in 6.2 mi South 6.9 mph - N/A   Partly Cloudy
10:30 PM 80.6 °F 85.4 °F 73.4 °F 79% 29.89 in 6.2 mi South 8.1 mph - N/A   Partly Cloudy
11:00 PM 78.8 °F - 73.4 °F 83% 29.89 in 6.2 mi South 6.9 mph - N/A   Partly Cloudy
11:30 PM 78.8 °F - 73.4 °F 83% 29.89 in 6.2 mi South 9.2 mph - N/A   Partly Cloudy